Regional Weather Roundup
Issued by NWS Newport/Morehead, NC

Current Version | Previous Version | Text Only | Print | Product List | Glossary On
Versions: 1 2 3 4 5 6 7 8 9 10 11 12 13 14 15 16 17 18 19 20 21 22 23 24 25 26 27 28 29 30 31 32 33 34 35 36 37 38 39 40 41 42 43 44 45 46 47 48 49 50
000 ASUS42 KMHX 280725 RWRMHX WEATHER ROUNDUP FOR EASTERN NORTH CAROLINA NATIONAL WEATHER SERVICE NEWPORT/MOREHEAD CITY NC 300 AM EDT SUN AUG 28 2016 NOTE: "FAIR" INDICATES FEW OR NO CLOUDS BELOW 12,000 FEET WITH NO SIGNIFICANT WEATHER AND/OR OBSTRUCTIONS TO VISIBILITY NCZ015>017-031-032-045>047-102-103-280800- NORTH COAST CITY SKY/WX TMP DP RH WIND PRES REMARKS EDENTON PTCLDY N/A N/A N/A CALM 30.14S HAZE ELIZABETH CITY MOCLDY 78 75 90 N6 30.14S KITTY HAWK MOSUNNY 78 78 100 NE5 30.11F MANTEO PTCLDY 78 77 97 NE9 30.12F $$ NCZ045>047-081-094-103-104-280800- CENTRAL COAST CITY SKY/WX TMP DP RH WIND PRES REMARKS FRISCO CLOUDY 79 73 82 E5 30.10F $$ NCZ095-097-098-100-101-280800- SOUTHERN COAST CITY SKY/WX TMP DP RH WIND PRES REMARKS BEAUFORT LGT RAIN 78 76 93 E7 30.11S CEDAR ISLAND NOT AVBL JACKSONVILLE MOCLDY 78 75 90 NE6 30.11S PINEY ISLAND NOT AVBL WILMINGTON CLOUDY 76 75 97 N6 30.10F $$ NCZ011>013-027>030-043-044-078>080-089-090>093-098-280800- COASTAL PLAIN CITY SKY/WX TMP DP RH WIND PRES REMARKS AHOSKIE CLEAR 69 68 98 CALM 30.15F CLINTON MOCLDY 76 76 100 CALM 30.13S ELIZABETHTOWN MOCLDY 74 74 99 CALM 30.13R GOLDSBORO CLEAR 75 75 100 E2 30.13R GREENVILLE PTCLDY 70 70 100 CALM 30.16R HAVELOCK CLEAR 79 76 90 NE8 30.12S KENANSVILLE CLEAR 73 73 100 CALM 30.13S FOG KINSTON MOCLDY 75 74 95 CALM 30.14S NEW BERN CLEAR 77 75 93 NE7 30.13S RICHLANDS PTCLDY 75 73 94 N5 30.13S ROCKY MOUNT CLEAR 72 72 100 CALM 30.16R WASHINGTON PTCLDY 73 72 98 N5 30.13S WHITEVILLE MOCLDY 76 74 95 CALM 30.11S FOG $$ AMZ130-135-150-152-154-156-158-170-250-252-270-ANZ085-086-088-633-658-670-280800- MARINE OBSERVATIONS STATION/POSITION TIME TEMP WIND PRES WAVE SWELL AIR SEA DIR/SP/G HT/PER HT/PER (UTC) (F) (DEG/KT/KT) (MB) (FT/S) (FT/S) CHESAPEAKE LIGHT NOT AVBL 64 E VA BEACH 0650 81 81 60/ 16/ 19 1019.4 4/ 5 2/ 9 DUCK 0700 80 79 50/ 15/ 17 1019.4 2 E DUCK 0711 79 N/A 4/ 5 OREGON INLET 0700 80 79 30/ 7/ 11 1019.4 13E OREGON INLT 0700 82 N/A 4/ 5 3/ 5 HATTERAS CG 0700 80 84 80/ 5/ 8 1018.9 DIAMOND BUOY 0650 76 84 340/ 2/ 4 1019.4 3/ 9 3/ 9 CAPE LOOKOUT 0700 79 150/ 6/ 7 1018.9 BEAUFORT LAB 0700 77 82 100/ 11/ 16 1018.9 30 SE NEW RVR IN 0708 79 84 70/ 12/ 16 1018.9 30 SE NEW RVR IN 0625 84 N/A 3/ 9 27 SE WRIGHTSVLE 0708 82 85 90/ 6/ 10 1018.8 5 SE WRIGHTSVLE 0608 82 84 40/ 6/ 8 1020.1 225 S CAPE HAT 0650 83 84 60/ 10/ 12 1016.8 4/ 7 3/ 7 41 SE CHARLESTON 0650 83 84 60/ 12/ 16 1017.0 4/ 8 3/ 8 $$

USA.gov is the U.S. government's official web portal to all federal, state and local government web resources and services.